FW4608 Weather Reports


Display with metric or nautical units.
time (UTC)temp
F
wind
direction
speed
MPH
gust
MPH
rain 1hr
in
rain 24hr
in
rain mn
in
humidity
%
barometer
mb
20260906113549 77 232 0.0 0.0 0.00 0.67 0.00 94 1012.0
20260906113054 77 232 0.0 0.0 0.00 0.67 0.00 94 1012.0
20260906112548 77 232 0.0 0.0 0.00 0.67 0.00 94 1011.9
20260906112048 77 232 0.0 0.0 0.00 0.67 0.00 94 1011.9
20260906111604 77 232 0.0 1.0 0.00 0.67 0.00 94 1011.9
20260906111046 77 233 0.0 1.0 0.00 0.67 0.00 94 1011.7
20260906110547 77 225 0.0 0.0 0.00 0.67 0.00 94 1011.7
20260906110044 77 225 0.0 2.0 0.00 0.67 0.00 94 1011.7
20260906105544 77 225 0.0 2.0 0.00 0.67 0.00 94 1011.5
20260906105044 77 248 0.0 0.0 0.00 0.67 0.00 94 1011.5
20260906104543 77 248 0.0 1.0 0.00 0.67 0.00 94 1011.4
20260906104042 78 248 0.0 2.0 0.00 0.67 0.00 94 1011.4
20260906103545 78 207 0.0 2.0 0.00 0.67 0.00 94 1011.4
20260906103043 78 236 0.0 1.0 0.00 0.67 0.00 94 1011.4
20260906102541 78 232 0.0 1.0 0.00 0.67 0.00 94 1011.4
20260906102043 78 309 0.0 1.0 0.00 0.67 0.00 95 1011.3
20260906101540 77 279 0.0 1.0 0.00 0.67 0.00 94 1011.3
20260906101038 77 281 0.0 0.0 0.00 0.67 0.00 95 1011.2
20260906100540 77 281 0.0 2.0 0.00 0.67 0.00 95 1011.2
20260906100037 77 281 0.0 2.0 0.00 0.67 0.00 95 1011.3
20260906095536 77 247 0.0 1.0 0.00 0.67 0.00 95 1011.2
20260906095037 77 245 0.0 2.0 0.00 0.67 0.00 95 1011.3
20260906094539 77 245 0.0 2.0 0.00 0.67 0.00 95 1011.2
20260906094036 77 243 0.0 1.0 0.00 0.67 0.00 95 1011.2
20260906093534 77 252 0.0 0.0 0.00 0.67 0.00 95 1011.2
20260906093039 77 252 0.0 1.0 0.00 0.67 0.00 95 1011.2
20260906092535 77 252 0.0 1.0 0.00 0.67 0.00 95 1011.3
20260906092032 77 252 0.0 1.0 0.00 0.67 0.00 95 1011.1
20260906091534 77 255 0.0 0.0 0.00 0.67 0.00 95 1011.1
20260906091031 77 254 0.0 0.0 0.00 0.67 0.00 95 1011.1
20260906090531 77 254 0.0 0.0 0.00 0.67 0.00 95 1011.1
20260906090029 77 254 0.0 0.0 0.00 0.67 0.00 95 1011.1
20260906085529 77 254 0.0 0.0 0.00 0.67 0.00 95 1011.0
20260906085032 77 254 0.0 0.0 0.00 0.67 0.00 95 1011.0
20260906084543 77 254 0.0 0.0 0.00 0.67 0.00 95 1011.1
20260906084025 77 255 0.0 0.0 0.00 0.67 0.00 95 1011.2
20260906083526 77 254 0.0 0.0 0.00 0.67 0.00 95 1011.1
20260906083034 77 254 0.0 1.0 0.00 0.67 0.00 95 1011.0
20260906082524 77 255 0.0 1.0 0.00 0.67 0.00 95 1010.9
20260906082026 77 254 0.0 0.0 0.00 0.67 0.00 95 1010.9
20260906081523 77 255 0.0 0.0 0.00 0.67 0.00 94 1011.0
20260906081022 77 255 0.0 0.0 0.00 0.67 0.00 95 1010.9
20260906080521 77 254 0.0 0.0 0.00 0.67 0.00 95 1011.0
20260906080028 77 255 0.0 0.0 0.00 0.67 0.00 94 1010.9
20260906075522 77 255 0.0 0.0 0.00 0.67 0.00 94 1011.0
20260906075020 77 255 0.0 0.0 0.00 0.67 0.00 94 1010.9
20260906074519 78 255 0.0 0.0 0.00 0.67 0.00 95 1010.9
20260906074022 78 252 0.0 0.0 0.00 0.67 0.00 95 1010.9
20260906073518 77 252 0.0 0.0 0.00 0.67 0.00 94 1011.0
20260906073017 77 271 0.0 0.0 0.00 0.67 0.00 94 1011.0
20260906072517 77 271 0.0 0.0 0.00 0.67 0.00 94 1011.0
20260906072015 78 271 0.0 0.0 0.00 0.67 0.00 94 1011.1
20260906071515 78 271 0.0 0.0 0.00 0.67 0.00 94 1011.0
20260906071013 78 271 0.0 2.0 0.00 0.67 0.00 94 1010.9
20260906070512 78 271 0.0 2.0 0.00 0.67 0.00 94 1011.0
20260906070012 78 247 0.0 0.0 0.00 0.67 0.00 94 1011.0
20260906065512 78 247 0.0 2.0 0.00 0.67 0.00 94 1011.0
20260906065011 78 247 0.0 2.0 0.00 0.67 0.00 94 1010.9
20260906064514 78 278 0.0 2.0 0.00 0.67 0.00 94 1010.9
20260906064010 78 278 0.0 2.0 0.00 0.67 0.00 94 1010.9
20260906063509 78 223 0.0 2.0 0.00 0.67 0.00 94 1011.0
20260906063008 78 223 0.0 2.0 0.00 0.67 0.00 95 1010.9
20260906062507 78 254 0.0 2.0 0.00 0.67 0.00 95 1011.0
20260906062005 78 245 0.0 1.0 0.00 0.67 0.00 95 1011.1
20260906061505 78 269 0.0 1.0 0.00 0.67 0.00 95 1011.2
20260906061004 77 289 0.0 1.0 0.00 0.67 0.00 95 1011.2
20260906060506 77 283 0.0 1.0 0.00 0.67 0.00 95 1011.3
20260906060002 77 244 0.0 0.0 0.00 0.67 0.00 95 1011.2
20260906055502 77 244 0.0 1.0 0.00 0.67 0.00 95 1011.3
20260906055100 77 228 0.0 1.0 0.00 0.67 0.00 95 1011.4
20260906054602 77 195 0.0 1.0 0.00 0.67 0.00 95 1011.4
20260906054059 77 258 0.0 1.0 0.00 0.67 0.00 95 1011.3
20260906053558 77 258 0.0 1.0 0.00 0.67 0.00 95 1011.5
20260906053057 77 235 0.0 0.0 0.00 0.67 0.00 95 1011.5
20260906052556 78 235 0.0 0.0 0.00 0.67 0.00 95 1011.6
20260906052056 78 235 0.0 0.0 0.00 0.67 0.00 95 1011.5
20260906051605 78 235 0.0 0.0 0.00 0.67 0.00 95 1011.6
20260906051055 78 235 0.0 0.0 0.00 0.67 0.00 95 1011.5
20260906050554 78 235 0.0 0.0 0.00 0.67 0.00 95 1011.7
20260906050052 78 235 0.0 1.0 0.00 0.67 0.00 95 1011.7
20260906045554 78 235 0.0 1.0 0.00 0.67 0.00 95 1011.8
20260906045050 78 251 0.0 1.0 0.00 0.67 0.00 95 1011.8
20260906044550 78 330 0.0 1.0 0.00 0.67 0.00 95 1011.8
20260906044047 78 331 0.0 1.0 0.00 0.67 0.00 95 1011.9
20260906043547 78 201 0.0 0.0 0.00 0.67 0.00 95 1011.9
20260906043046 78 201 0.0 0.0 0.00 0.67 0.00 95 1012.0
20260906042545 78 201 0.0 0.0 0.00 0.67 0.00 95 1012.0
20260906042043 78 194 0.0 0.0 0.00 0.67 0.00 95 1012.1
20260906041542 78 194 0.0 0.0 0.00 0.67 0.00 95 1012.3
20260906041041 78 194 0.0 0.0 0.00 0.67 0.00 95 1012.2
20260906040540 78 194 0.0 0.0 0.00 0.67 0.00 95 1012.2
20260906040039 78 194 0.0 0.0 0.00 0.67 0.00 95 1012.2
20260906035539 78 194 0.0 0.0 0.00 0.67 0.67 95 1012.2
20260906035037 78 195 0.0 0.0 0.00 0.67 0.67 95 1012.2
20260906034544 78 200 0.0 0.0 0.00 0.67 0.67 95 1012.2
20260906034035 78 200 0.0 0.0 0.00 0.67 0.67 95 1012.3
20260906033536 78 200 0.0 0.0 0.00 0.67 0.67 95 1012.3
20260906033034 78 200 0.0 0.0 0.00 0.67 0.67 95 1012.4
20260906032533 78 200 0.0 0.0 0.00 0.67 0.67 95 1012.5
20260906032033 78 200 0.0 0.0 0.00 0.67 0.67 95 1012.5
20260906031534 77 200 0.0 0.0 0.00 0.67 0.67 95 1012.5
20260906031032 77 200 0.0 0.0 0.00 0.67 0.67 95 1012.5
20260906030531 77 200 0.0 0.0 0.00 0.67 0.67 95 1012.6
20260906030031 77 200 0.0 0.0 0.00 0.67 0.67 95 1012.6
20260906025534 77 200 0.0 0.0 0.00 0.67 0.67 95 1012.4
20260906025030 77 200 0.0 0.0 0.00 0.67 0.67 95 1012.4
20260906024529 77 200 0.0 0.0 0.00 0.67 0.67 94 1012.4
20260906024032 77 200 0.0 0.0 0.00 0.67 0.67 94 1012.5
20260906023528 77 200 0.0 0.0 0.00 0.67 0.67 94 1012.7
20260906023027 77 200 0.0 0.0 0.00 0.67 0.67 94 1012.7
20260906022527 77 200 0.0 0.0 0.00 0.67 0.67 94 1012.7
20260906022028 77 200 0.0 0.0 0.00 0.67 0.67 94 1012.6
20260906021526 77 200 0.0 0.0 0.00 0.67 0.67 94 1012.5
20260906021025 77 200 0.0 0.0 0.00 0.67 0.67 94 1012.5
20260906020524 77 200 0.0 0.0 0.00 0.67 0.67 94 1012.4
20260906020025 77 200 0.0 0.0 0.00 0.67 0.67 94 1012.2
20260906015524 77 200 0.0 0.0 0.00 0.67 0.67 94 1012.1
20260906015024 77 200 0.0 0.0 0.00 0.67 0.67 94 1012.0
20260906014535 78 200 0.0 0.0 0.00 0.67 0.67 94 1011.8
20260906014025 78 200 0.0 0.0 0.00 0.67 0.67 94 1011.9
20260906013522 78 200 0.0 0.0 0.00 0.67 0.67 94 1011.8
20260906013021 78 200 0.0 0.0 0.00 0.67 0.67 94 1011.7
20260906012520 78 200 0.0 0.0 0.00 0.67 0.67 94 1011.8
20260906012019 78 200 0.0 0.0 0.00 0.67 0.67 94 1011.8
20260906011533 78 200 0.0 0.0 0.00 0.67 0.67 94 1011.8
20260906011018 78 200 0.0 0.0 0.00 0.67 0.67 93 1011.8
20260906010517 78 200 0.0 0.0 0.00 0.67 0.67 93 1011.7
20260906010017 78 200 0.0 0.0 0.00 0.67 0.67 93 1011.5
20260906005515 78 195 0.0 0.0 0.00 0.67 0.67 93 1011.4
20260906005018 78 195 0.0 0.0 0.00 0.67 0.67 93 1011.3
20260906004526 78 195 0.0 0.0 0.00 0.67 0.67 93 1011.3
20260906004015 78 229 0.0 0.0 0.00 0.67 0.67 93 1011.3
20260906003513 79 229 0.0 0.0 0.00 0.67 0.67 93 1011.3
20260906003013 79 230 0.0 1.0 0.00 0.67 0.67 92 1011.2
20260906002512 79 224 0.0 1.0 0.00 0.67 0.67 92 1011.1
20260906002012 79 110 0.0 0.0 0.00 0.67 0.67 92 1011.2
20260906001511 79 110 0.0 1.0 0.00 0.67 0.67 92 1011.2
20260906001011 79 113 0.0 1.0 0.00 0.67 0.67 92 1011.1
20260906000515 79 53 0.0 0.0 0.00 0.67 0.67 91 1011.0
20260906000010 79 53 0.0 0.0 0.00 0.67 0.67 91 1010.9
20260905235509 79 53 0.0 0.0 0.00 0.67 0.67 91 1010.9
20260905235009 80 53 0.0 0.0 0.00 0.67 0.67 91 1011.0
20260905234508 80 53 0.0 0.0 0.00 0.67 0.67 91 1010.9
20260905234009 80 63 0.0 0.0 0.00 0.67 0.67 91 1010.8
20260905233507 81 68 0.0 0.0 0.00 0.67 0.67 91 1010.6
20260905233007 81 68 0.0 0.0 0.00 0.67 0.67 91 1010.7
20260905232505 81 68 0.0 0.0 0.00 0.67 0.67 90 1010.9
20260905232008 81 68 0.0 0.0 0.00 0.67 0.67 90 1010.8
20260905231503 82 68 0.0 0.0 0.00 0.67 0.67 90 1011.0
20260905231002 82 70 0.0 0.0 0.00 0.67 0.67 90 1010.9
20260905230503 82 63 0.0 0.0 0.00 0.67 0.67 90 1011.0
20260905230100 82 63 0.0 0.0 0.00 0.67 0.67 90 1011.1
20260905225559 82 63 0.0 0.0 0.00 0.68 0.67 90 1011.2
20260905225059 82 63 0.0 0.0 0.00 0.68 0.67 90 1011.2
20260905224558 82 63 0.0 0.0 0.00 0.68 0.67 90 1011.4
20260905224058 82 63 0.0 0.0 0.00 0.68 0.67 91 1011.4
20260905223556 82 63 0.0 0.0 0.00 0.68 0.67 91 1011.4
20260905223056 81 63 0.0 0.0 0.00 0.68 0.67 91 1011.4
20260905222555 81 63 0.0 0.0 0.00 0.68 0.67 91 1011.4
20260905222054 81 63 0.0 0.0 0.00 0.68 0.67 92 1011.4
20260905221553 80 64 0.0 0.0 0.00 0.68 0.67 93 1011.6
20260905221053 80 43 0.0 0.0 0.00 0.68 0.67 95 1011.7
20260905220552 79 43 0.0 1.0 0.00 0.68 0.67 95 1011.7
20260905220051 79 43 0.0 1.0 0.00 0.68 0.67 94 1011.6
20260905215551 78 103 0.0 0.0 0.00 0.72 0.67 95 1011.5
20260905215050 78 78 0.0 0.0 0.00 0.72 0.67 95 1011.5
20260905214549 78 78 0.0 0.0 0.00 0.72 0.67 95 1011.6
20260905214049 78 41 0.0 0.0 0.00 0.72 0.67 95 1011.5
20260905213550 78 127 0.0 0.0 0.00 0.72 0.67 95 1011.5
20260905213047 78 128 0.0 0.0 0.00 0.72 0.67 95 1011.7
20260905212546 77 128 0.0 0.0 0.00 0.72 0.67 95 1011.8
20260905212045 78 170 0.0 0.0 0.00 0.72 0.67 95 1011.8
20260905211545 77 170 0.0 0.0 0.00 0.72 0.67 95 1011.8
20260905211042 77 170 0.0 0.0 0.00 0.72 0.67 95 1011.8
20260905210544 77 169 0.0 2.0 0.00 0.72 0.67 95 1011.9
20260905210042 77 169 0.0 2.0 0.00 0.72 0.67 95 1011.8
20260905205544 78 197 0.0 0.0 0.00 0.74 0.67 95 1011.8
20260905205041 78 197 0.0 0.0 0.00 0.74 0.67 95 1011.9
20260905204548 77 261 0.0 0.0 0.00 0.74 0.67 95 1011.9
20260905204043 78 261 0.0 0.0 0.00 0.74 0.67 95 1011.8
20260905203539 78 261 0.0 2.0 0.00 0.74 0.67 95 1011.9
20260905203038 78 259 0.0 0.0 0.00 0.74 0.67 95 1012.0
20260905202536 77 259 0.0 0.0 0.00 0.74 0.67 95 1011.9
20260905202037 77 259 0.0 2.0 0.00 0.74 0.67 94 1011.9
20260905201540 77 257 0.0 2.0 0.00 0.74 0.67 94 1012.0
20260905201034 77 103 0.0 0.0 0.01 0.74 0.67 94 1012.0
20260905200534 77 103 0.0 0.0 0.02 0.74 0.67 94 1011.7
20260905200040 77 103 0.0 0.0 0.07 0.74 0.67 94 1011.8
20260905195532 77 103 0.0 0.0 0.18 0.89 0.67 94 1011.9
20260905195031 77 103 0.0 0.0 0.42 0.89 0.67 94 1012.0
20260905194533 76 103 0.0 0.0 0.62 0.89 0.67 94 1012.2
20260905194033 76 103 0.0 0.0 0.66 0.89 0.67 94 1012.2
20260905193529 76 103 0.0 0.0 0.66 0.89 0.67 94 1012.4
20260905193029 76 103 0.0 0.0 0.66 0.89 0.67 93 1012.5
20260905192529 75 103 0.0 0.0 0.66 0.89 0.67 92 1012.4
20260905192029 75 103 0.0 0.0 0.66 0.89 0.67 92 1012.1
20260905191527 75 103 0.0 0.0 0.66 0.89 0.67 91 1012.1
20260905191026 76 129 0.0 0.0 0.65 0.88 0.66 91 1012.2
20260905190525 76 141 0.0 0.0 0.64 0.87 0.65 90 1012.5
20260905190030 77 96 0.0 15.0 0.59 0.82 0.60 88 1012.8
20260905185524 78 150 0.0 22.0 0.46 0.69 0.47 86 1013.2
20260905185028 82 294 0.0 9.0 0.20 0.43 0.21 85 1013.2
20260905184523 87 319 3.0 14.0 0.00 0.23 0.01 81 1013.1
20260905184023 92 312 0.0 3.0 0.00 0.23 0.01 75 1012.6
20260905183522 93 240 0.0 3.0 0.00 0.23 0.01 74 1012.1
20260905183020 93 278 0.0 3.0 0.00 0.23 0.01 74 1011.9
20260905182518 94 269 0.0 2.0 0.00 0.23 0.01 72 1012.0
20260905182016 94 124 0.0 2.0 0.00 0.23 0.01 74 1012.1
20260905181514 93 210 0.0 3.0 0.00 0.23 0.01 74 1012.1
20260905181012 93 331 0.0 3.0 0.00 0.23 0.01 76 1012.1
20260905180511 93 221 0.0 3.0 0.00 0.23 0.01 75 1012.2
20260905180008 93 255 0.0 3.0 0.00 0.23 0.01 75 1012.3
20260905175507 93 229 0.0 2.0 0.00 0.23 0.01 75 1012.3
20260905175005 93 220 0.0 2.0 0.00 0.23 0.01 73 1012.4
20260905174505 92 247 0.0 3.0 0.00 0.23 0.01 75 1012.6
20260905174001 92 257 0.0 3.0 0.00 0.23 0.01 74 1012.8
20260905173600 92 238 0.0 4.0 0.00 0.23 0.01 74 1012.8
20260905173059 92 242 0.0 4.0 0.00 0.23 0.01 76 1012.8
20260905172558 92 301 0.0 3.0 0.00 0.23 0.01 74 1012.8
20260905172057 92 220 0.0 3.0 0.00 0.23 0.01 77 1012.8
20260905171555 91 312 0.0 4.0 0.00 0.23 0.01 76 1012.9
20260905171057 91 263 0.0 9.0 0.00 0.23 0.01 79 1013.0
20260905170554 92 257 2.0 9.0 0.00 0.23 0.01 77 1013.2
20260905170057 92 245 0.0 5.0 0.00 0.23 0.01 78 1013.3
20260905165550 92 264 0.0 5.0 0.00 0.23 0.01 77 1013.4
20260905165051 92 256 0.0 6.0 0.00 0.23 0.01 79 1013.4
20260905164547 92 245 1.0 6.0 0.00 0.23 0.01 79 1013.5
20260905164045 92 245 0.0 5.0 0.00 0.23 0.01 81 1013.6
20260905163542 91 241 0.0 6.0 0.00 0.23 0.01 81 1013.7
20260905163041 90 288 1.0 6.0 0.00 0.23 0.01 81 1013.7
20260905162543 90 238 0.0 4.0 0.00 0.23 0.01 82 1013.8
20260905162038 89 236 1.0 6.0 0.00 0.23 0.01 81 1013.9
20260905161536 90 231 0.0 5.0 0.00 0.23 0.01 82 1014.0
20260905161035 90 264 1.0 4.0 0.00 0.23 0.01 81 1014.0
20260905160533 90 243 0.0 2.0 0.00 0.23 0.01 82 1014.0
20260905160041 89 283 0.0 4.0 0.00 0.23 0.01 81 1014.1
20260905155532 89 222 1.0 7.0 0.00 0.23 0.01 82 1014.2
20260905155030 89 237 1.0 7.0 0.00 0.23 0.01 82 1014.3
20260905154528 90 336 0.0 2.0 0.00 0.23 0.01 82 1014.4
20260905154027 89 265 0.0 6.0 0.00 0.23 0.01 83 1014.4
20260905153526 89 252 0.0 6.0 0.00 0.23 0.01 83 1014.4
20260905153022 89 274 0.0 5.0 0.00 0.23 0.01 84 1014.5
20260905152521 88 253 0.0 4.0 0.00 0.23 0.01 84 1014.5
20260905152019 87 318 0.0 5.0 0.00 0.23 0.01 84 1014.5
20260905151518 87 288 0.0 5.0 0.00 0.23 0.01 84 1014.6
20260905151017 87 217 1.0 4.0 0.00 0.23 0.01 85 1014.6
20260905150515 87 244 0.0 3.0 0.00 0.23 0.01 84 1014.6
20260905150013 86 243 0.0 5.0 0.00 0.23 0.01 86 1014.5
20260905145512 86 245 0.0 4.0 0.01 0.23 0.01 86 1014.6
20260905145011 86 300 0.0 5.0 0.01 0.23 0.01 87 1014.6
20260905144509 85 232 1.0 5.0 0.01 0.23 0.01 85 1014.6
20260905144007 85 310 0.0 3.0 0.01 0.23 0.01 87 1014.7
20260905143507 85 297 0.0 4.0 0.01 0.23 0.01 87 1014.7
20260905143005 85 250 0.0 4.0 0.01 0.23 0.01 87 1014.7
20260905142503 85 244 0.0 3.0 0.01 0.23 0.01 88 1014.8
20260905142001 84 245 0.0 3.0 0.01 0.23 0.01 89 1014.8
20260905141600 84 220 0.0 3.0 0.01 0.23 0.01 89 1014.7
20260905141102 83 248 0.0 2.0 0.01 0.23 0.01 89 1014.8
20260905140558 83 313 0.0 2.0 0.01 0.23 0.01 89 1014.7
20260905140056 83 304 0.0 2.0 0.01 0.23 0.01 90 1014.7
20260905135553 82 307 0.0 2.0 0.00 0.22 0.00 91 1014.6
20260905135052 82 207 0.0 2.0 0.00 0.22 0.00 92 1014.5
20260905134556 81 238 0.0 4.0 0.00 0.22 0.00 92 1014.6
20260905134052 81 256 0.0 4.0 0.00 0.22 0.00 92 1014.5
20260905133547 80 204 0.0 1.0 0.00 0.22 0.00 94 1014.5
20260905133046 80 243 0.0 2.0 0.00 0.22 0.00 94 1014.6
20260905132548 79 226 0.0 2.0 0.00 0.22 0.00 95 1014.6
20260905132045 79 240 0.0 1.0 0.00 0.22 0.00 96 1014.5
20260905131548 79 251 0.0 2.0 0.00 0.22 0.00 96 1014.6
20260905131039 78 246 0.0 4.0 0.00 0.22 0.00 96 1014.5
20260905130538 78 225 0.0 5.0 0.00 0.22 0.00 96 1014.5
20260905130036 78 231 0.0 5.0 0.00 0.22 0.00 96 1014.5
20260905125536 78 238 0.0 2.0 0.00 0.22 0.00 96 1014.3
20260905125033 77 246 0.0 0.0 0.00 0.22 0.00 96 1014.4
20260905124536 77 246 0.0 0.0 0.00 0.22 0.00 96 1014.3
20260905124034 77 248 0.0 1.0 0.00 0.22 0.00 96 1014.3
20260905123530 77 242 0.0 1.0 0.00 0.22 0.00 96 1014.3
20260905123029 77 257 0.0 0.0 0.00 0.22 0.00 96 1014.4
20260905122528 76 258 0.0 0.0 0.00 0.22 0.00 96 1014.6
20260905122126 76 237 0.0 0.0 0.00 0.22 0.00 96 1014.4
20260905121525 76 236 0.0 0.0 0.00 0.22 0.00 96 1014.3
20260905121028 76 237 0.0 0.0 0.00 0.22 0.00 96 1014.2
20260905120522 76 237 0.0 0.0 0.00 0.22 0.00 96 1014.1
20260905120021 76 237 0.0 0.0 0.00 0.22 0.00 96 1013.9
20260905115520 76 237 0.0 1.0 0.00 0.22 0.00 96 1013.7
20260905115019 76 237 0.0 1.0 0.00 0.22 0.00 96 1013.7
20260905114532 75 236 0.0 1.0 0.00 0.22 0.00 96 1013.6
20260905114020 75 237 0.0 0.0 0.00 0.22 0.00 96 1013.6